Weather Roundup
Issued by NWS Chicago, IL

Home | Current Version | Previous Version | Text Only | Print | Product List | Glossary Off
Versions: 1 2 3 4 5 6 7 8 9 10 11 12 13 14 15 16 17 18 19 20 21 22 23 24 25 26 27 28 29 30 31 32 33 34 35 36 37 38 39 40 41 42 43 44 45 46 47 48 49 50

000
NZUS59 KLOT 181808
HRRLOT

CHICAGO AREA WEATHER ROUNDUP
NATIONAL WEATHER SERVICE CHICAGO/ROMEOVILLE IL
1200 PM CST MON DEC 18 2017

NOTE: "FAIR" INDICATES FEW OR NO CLOUDS BELOW 12,000 FEET WITH NO
SIGNIFICANT WEATHER AND/OR OBSTRUCTIONS TO VISIBILITY.

* THESE STATIONS ARE NOT UNDER NWS QUALITY CONTROL. THEY ALSO MAY NOT
  REPORT WEATHER SUCH AS PRECIPITATION OR FOG.

ILZ005-006-012>014-019>023-181900-
NORTHEAST ILLINOIS

CITY           SKY/WX    TMP DP  RH WIND       PRES   REMARKS
OHARE          CLOUDY    42  36  79 W14G26    29.89F
6HR MIN TEMP:  42; 6HR MAX TEMP:  43; 6HR PCP:  0.01;

MIDWAY         LGT RAIN  43  41  93 W16       29.91F FOG
6HR MIN TEMP:  43; 6HR MAX TEMP:  45; 6HR PCP:  0.02;

AURORA         CLOUDY    42  37  82 SW13      29.92F HAZE
6HR MIN TEMP:  39; 6HR MAX TEMP:  42; 6HR PCP:  0.05;

LANSING*       CLOUDY    44  44  98 SW15G22   29.92F FOG
JOLIET*        DRIZZLE   43  41  95 W10G17    29.93F
WAUKEGAN       CLOUDY    41  33  73 SW13      29.86F HAZE
6HR MIN TEMP:  40; 6HR MAX TEMP:  44;

DUPAGE AIRPORT CLOUDY    42  38  85 W13G22    29.90F FOG
6HR MIN TEMP:  40; 6HR MAX TEMP:  42; 6HR PCP:  0.01;

WHEELING       CLOUDY    44  38  79 SW13      29.90F
6HR MIN TEMP:  43; 6HR MAX TEMP:  44; 6HR PCP: TRACE;

KANKAKEE*      CLOUDY    46  42  87 SW18G24   29.95F
MORRIS*        DRIZZLE   41  39  93 W13       29.93F
LEWIS AIRPORT* DRIZZLE   40  39  95 W13       29.92F
NORTHERLY ISL    N/A     42  39  89 W10         N/A
$$

WIZ051-052-058>065-066-070>072-181900-
SOUTHEAST WISCONSIN

CITY           SKY/WX    TMP DP  RH WIND       PRES   REMARKS
MILWAUKEE      CLOUDY    38  35  89 SW7       29.85F FOG
6HR MIN TEMP:  36; 6HR MAX TEMP:  38;

KENOSHA*       CLOUDY    42  33  70 W18G26    29.86F
RACINE*        MOSUNNY   39  33  79 W15G26    29.87F HAZE
BURLINGTON     CLOUDY    49  48  98 W9G17     29.86F FOG
WAUKESHA       CLOUDY    34  32  93 W10G18    29.85F FOG     WCI  26
WEST BEND      CLOUDY    32  32 100 W9        29.83F FOG     WCI  24
$$

INZ001>003-010>013-019-020-181900-
NORTHWEST INDIANA

CITY           SKY/WX    TMP DP  RH WIND       PRES   REMARKS
GARY*          CLOUDY    46  43  87 SW16      29.92F FOG
MICHIGAN CITY* NOT AVBL
RENSSELAER*    NOT AVBL
VALPARAISO     CLOUDY    46  43  89 SW14      29.93F FOG
$$

LMZ740>746-181900-
SOUTHERN LAKE MICHIGAN

STATION/POSITION TIME  SKY/WX   TEMP WIND        PRES    VSBY
                                AIR  DIR/SP/G
                 (UTC)          (F)  (DEG/KT/KT) (MB)    (MI)
HARRISON CRIB    1740            43  270/ 16/ 17   N/A
BURNHAM HARBOR   1800            42  270/  4/ 13   N/A
CALUMET HARBOR   1748            45  230/  9/ 13 1012.3F
BURNS HARBOR     1740            44  230/ 11/ 20 1013.9F
MICHIGAN CITY    1740            44  210/ 18/ 22   N/A
$$

ABBREVIATIONS USED IN REMARKS
   TC - TEMPERATURE IN CELSIUS
  WCI - WIND CHILL INDEX
   HX - HEAT INDEX
  VSB - VISIBILITY
$$




USA.gov is the U.S. government's official web portal to all federal, state and local government web resources and services.